Regional Weather Roundup
Issued by NWS

Home | Current Version | Previous Version | Graphics & Text | Print | Product List | Glossary On
Versions: 1 2 3 4 5 6 7 8 9 10 11 12 13 14 15 16 17 18 19 20 21 22 23 24 25 26 27 28 29 30 31 32 33 34 35 36 37 38 39 40 41 42 43 44 45 46 47 48 49 50
000
ASUS45 KBOU 032307
RWRCO

WEATHER ROUNDUP FOR COLORADO
NATIONAL WEATHER SERVICE DENVER/BOULDER CO
400 PM MST SAT DEC 03 2016

NOTE: "FAIR" INDICATES FEW OR NO CLOUDS BELOW 12000 FEET WITH NO
SIGNIFICANT WEATHER AND/OR OBSTRUCTIONS TO VISIBILITY.

COZ001>005-013-030-031-040000-
...NORTHWEST COLORADO...

CITY           SKY/WX    TMP DP  RH WIND       PRES   REMARKS
CRAIG          CLOUDY    29  12  49 CALM      30.13R
HAYDEN         CLOUDY    25  10  54 CALM      30.12R
MEEKER         CLOUDY    24  15  68 S3        30.12S
MOUNT WERNER   NOT AVBL
STEAMBOAT SPGS CLOUDY    22  12  65 CALM      30.11R
WALDEN           N/A     19   7  58 W15       30.04R WCI   5
$$

COZ006>008-011-040000-
...WEST CENTRAL VALLEYS...

CITY           SKY/WX    TMP DP  RH WIND       PRES   REMARKS
GRAND JUNCTION FAIR      37  18  46 NW5       30.14S
MONTROSE       FAIR      35  16  45 CALM      30.15S
EAGLE          CLOUDY    30  10  43 W8        30.11S WCI  23
RIFLE          MOCLDY    33  17  51 CALM      30.15R
DELTA          FAIR      40  18  40 S3        30.13F
NUCLA          FAIR      37   7  28 NW9       30.15S
$$

COZ017>023-064>068-040000-
...SOUTHWEST COLORADO...

CITY           SKY/WX    TMP DP  RH WIND       PRES   REMARKS
DURANGO        FAIR      34  25  69 SW13      30.03R WCI  25
CORTEZ         FAIR      40  11  30 NW15      30.08R
PAGOSA SPRINGS FAIR      36  21  56 SW7       30.02R
TELLURIDE      NOT AVBL
WOLF CREEK PAS FOG       16  16 100 SW7       30.06S VSB 1/4 WCI   6
$$

COZ009-010-012-014-032>034-037-058>063-040000-
...CENTRAL COLORADO...

CITY           SKY/WX    TMP DP  RH WIND       PRES   REMARKS
ASPEN          CLOUDY    25  13  60 N3        30.07F
BUENA VISTA    FAIR      31   9  38 NW16      29.98R WCI  20
COPPER MTN     NOT AVBL
BERTHOUD PASS    N/A      3  -8  60 NW31      29.88R WCI -22
COTTONWOOD PAS FAIR      28   9  43 W22G36    29.96S WCI  15
GUNNISON       MOCLDY    29  12  49 SW10      30.05S WCI  20
KREMMLING      CLOUDY    30  19  64 W9        30.08S WCI  22
LEADVILLE      CLOUDY    15   3  59 NW10      30.00S WCI   2
MONARCH PASS     N/A     12   9  85 W43G48    30.06S WCI -12
SALIDA         FAIR      35  13  40 W15G22    30.05S WCI  25
SUNLIGHT       CLOUDY    12  10  92 SW7       30.08S WCI   2
WILKERSON PASS FAIR      18   7  62 N9G17     29.98R WCI   6
$$

COZ069>075-040000-
...SAN LUIS VALLEY/SANGRE DE CRISTO MOUNTAINS...

CITY           SKY/WX    TMP DP  RH WIND       PRES   REMARKS
ALAMOSA        FAIR      26  19  74 SW10      30.01R WCI  16
LA VETA PASS   MOCLDY    19  16  86 NE24G30   29.95R WCI   2
SAGUACHE       MOCLDY    34   5  29 NW18      30.01R WCI  23
$$

COZ035-036-038>040-040000-
...NORTHERN COLORADO FRONT RANGE...

CITY           SKY/WX    TMP DP  RH WIND       PRES   REMARKS
DENVER INTL AP MOCLDY    37  19  48 NE6       29.96R
DMNS CITY PARK   N/A     38  13  36 NE7       29.96S
AURORA         MOCLDY    36  11  35 N6        29.96R
FRONT RANGE AP NOT AVBL
ERIE MUNI ARPT FAIR      40  16  38 NW6       29.97R
BOULDER MUN AP FAIR      41   9  26 SW13G21   29.96S
CENTENNIAL     MOCLDY    38   9  30 N8        29.95R
BROOMFIELD     MOCLDY    41   7  24 W18       29.96S
FORT COLLINS   FAIR      37  14  38 CALM      29.97S
LONGMONT       FAIR      41  11  29 CALM        N/A
$$

COZ041-046-047-076>085-087-088-040000-
...PIKES PEAK/PALMER DIVIDE AND SOUTHERN FOOTHILLS...

CITY           SKY/WX    TMP DP  RH WIND       PRES   REMARKS
COLO. SPRINGS  MOCLDY    42  15  33 S7        29.94R
A. F. ACADEMY  MOCLDY    39   9  28 N10       29.93R
SCHRIEVER AFB  NOT AVBL
ELLICOTT       FAIR     N/A N/A N/A E8        29.94R
FALCON         MOCLDY    36   5  28 N5        29.95R
FORT CARSON    FAIR      42  15  33 E6        29.93R
LIMON          MOCLDY    39  12  33 N13       29.96R
MONUMENT HILL  CLOUDY    32   5  32 N7        29.96R WCI  26
TRINIDAD       FAIR      45  19  35 NE13      29.92R
$$

COZ042>045-048>051-090-091-040000-
...NORTHEAST COLORADO...

CITY           SKY/WX    TMP DP  RH WIND       PRES   REMARKS
GREELEY ARPT   CLOUDY    40  19  43 SW3       29.98S
AKRON          FAIR      38  16  40 NW3       29.96R
BURLINGTON     FAIR      41  23  48 S6        29.96R
WRAY           NOT AVBL
STERLING       FAIR      43  14  31 N12G17    29.95R
HOLYOKE        FAIR      43  16  33 W5        29.96S
FORT MORGAN    MOCLDY    36  19  50 W5        29.98R
$$

COZ086-089-092>099-040000-
...SOUTHEAST COLORADO...

CITY           SKY/WX    TMP DP  RH WIND       PRES   REMARKS
PUEBLO         FAIR      44  19  36 E3        29.94R
LA JUNTA       FAIR      44  21  40 N10       29.94R
LAMAR          FAIR      43  29  57 NE9       29.93S
SPRINGFIELD      N/A     40  31  70 S8        29.93R
$$



USA.gov is the U.S. government's official web portal to all federal, state and local government web resources and services.